| time (UTC) | temp F | wind direction | speed MPH | gust MPH | rain 1hr in | rain 24hr in | rain mn in | humidity % | barometer mb |
| 20260510140508 | 52 | 162 | 2.0 | 5.0 | 0.00 | 0.00 | 0.00 | 79 | 1025.3 |
| 20260510140012 | 51 | 161 | 2.0 | 5.0 | 0.00 | 0.00 | 0.00 | 80 | 1025.3 |
| 20260510135514 | 51 | 165 | 1.0 | 6.0 | 0.00 | 0.00 | 0.00 | 81 | 1025.4 |
| 20260510135007 | 50 | 178 | 1.0 | 6.0 | 0.00 | 0.00 | 0.00 | 81 | 1025.3 |
| 20260510134513 | 50 | 162 | 3.0 | 6.0 | 0.00 | 0.00 | 0.00 | 82 | 1025.3 |
| 20260510134011 | 50 | 147 | 2.0 | 5.0 | 0.00 | 0.00 | 0.00 | 83 | 1025.3 |
| 20260510133510 | 49 | 157 | 2.0 | 6.0 | 0.00 | 0.00 | 0.00 | 85 | 1025.3 |
| 20260510133011 | 49 | 166 | 3.0 | 6.0 | 0.00 | 0.00 | 0.00 | 85 | 1025.3 |
| 20260510132510 | 49 | 163 | 1.0 | 5.0 | 0.00 | 0.00 | 0.00 | 86 | 1025.3 |
| 20260510132011 | 48 | 164 | 2.0 | 6.0 | 0.00 | 0.00 | 0.00 | 86 | 1025.3 |
| 20260510131513 | 48 | 169 | 3.0 | 6.0 | 0.00 | 0.00 | 0.00 | 87 | 1025.3 |
| 20260510131014 | 48 | 130 | 3.0 | 6.0 | 0.00 | 0.00 | 0.00 | 88 | 1025.2 |
| 20260510130514 | 47 | 75 | 2.0 | 5.0 | 0.00 | 0.00 | 0.00 | 89 | 1025.3 |
| 20260510130012 | 47 | 66 | 2.0 | 5.0 | 0.00 | 0.00 | 0.00 | 89 | 1025.3 |
| 20260510125512 | 46 | 61 | 1.0 | 5.0 | 0.00 | 0.00 | 0.00 | 89 | 1025.3 |
| 20260510125013 | 46 | 60 | 1.0 | 4.0 | 0.00 | 0.00 | 0.00 | 89 | 1025.3 |
| 20260510124513 | 46 | 59 | 2.0 | 3.0 | 0.00 | 0.00 | 0.00 | 89 | 1025.5 |
| 20260510124011 | 46 | 59 | 0.0 | 2.0 | 0.00 | 0.00 | 0.00 | 89 | 1025.6 |
| 20260510123511 | 46 | 59 | 0.0 | 2.0 | 0.00 | 0.00 | 0.00 | 89 | 1025.5 |
| 20260510123015 | 46 | 59 | 0.0 | 3.0 | 0.00 | 0.00 | 0.00 | 89 | 1025.6 |
| 20260510122616 | 46 | 59 | 0.0 | 3.0 | 0.00 | 0.00 | 0.00 | 89 | 1025.6 |
| 20260510122014 | 46 | 59 | 2.0 | 6.0 | 0.00 | 0.00 | 0.00 | 89 | 1025.6 |
| 20260510121515 | 46 | 59 | 1.0 | 6.0 | 0.00 | 0.00 | 0.00 | 89 | 1025.6 |
| 20260510121015 | 46 | 60 | 2.0 | 5.0 | 0.00 | 0.00 | 0.00 | 89 | 1025.6 |
| 20260510120516 | 46 | 60 | 2.0 | 5.0 | 0.00 | 0.00 | 0.00 | 89 | 1025.6 |
| 20260510120013 | 46 | 58 | 1.0 | 5.0 | 0.00 | 0.00 | 0.00 | 89 | 1025.4 |
| 20260510115512 | 46 | 58 | 2.0 | 5.0 | 0.00 | 0.00 | 0.00 | 88 | 1025.3 |
| 20260510115012 | 46 | 58 | 1.0 | 4.0 | 0.00 | 0.00 | 0.00 | 88 | 1025.3 |
| 20260510114517 | 46 | 58 | 1.0 | 7.0 | 0.00 | 0.00 | 0.00 | 88 | 1025.2 |
| 20260510114016 | 46 | 57 | 2.0 | 7.0 | 0.00 | 0.00 | 0.00 | 88 | 1025.1 |
| 20260510113515 | 46 | 65 | 3.0 | 5.0 | 0.00 | 0.00 | 0.00 | 88 | 1025.1 |
| 20260510113015 | 46 | 64 | 1.0 | 4.0 | 0.00 | 0.00 | 0.00 | 88 | 1025.1 |
| 20260510112515 | 46 | 58 | 1.0 | 4.0 | 0.00 | 0.00 | 0.00 | 88 | 1025.1 |
| 20260510112015 | 46 | 58 | 2.0 | 6.0 | 0.00 | 0.00 | 0.00 | 87 | 1025.0 |
| 20260510111519 | 46 | 48 | 2.0 | 6.0 | 0.00 | 0.00 | 0.00 | 87 | 1025.1 |
| 20260510111019 | 47 | 26 | 2.0 | 7.0 | 0.00 | 0.00 | 0.00 | 87 | 1025.1 |
| 20260510110519 | 47 | 55 | 3.0 | 7.0 | 0.00 | 0.00 | 0.00 | 87 | 1025.1 |
| 20260510110020 | 47 | 61 | 2.0 | 5.0 | 0.00 | 0.00 | 0.00 | 87 | 1025.0 |
| 20260510105517 | 47 | 61 | 2.0 | 7.0 | 0.00 | 0.00 | 0.00 | 86 | 1025.0 |
| 20260510105017 | 47 | 60 | 2.0 | 7.0 | 0.00 | 0.00 | 0.00 | 86 | 1024.9 |
| 20260510104519 | 47 | 61 | 2.0 | 7.0 | 0.00 | 0.00 | 0.00 | 86 | 1024.8 |
| 20260510104018 | 47 | 63 | 3.0 | 7.0 | 0.00 | 0.00 | 0.00 | 85 | 1024.7 |
| 20260510103515 | 47 | 64 | 4.0 | 7.0 | 0.00 | 0.00 | 0.00 | 84 | 1024.7 |
| 20260510103019 | 47 | 61 | 3.0 | 8.0 | 0.00 | 0.00 | 0.00 | 84 | 1024.7 |
| 20260510102519 | 48 | 58 | 4.0 | 8.0 | 0.00 | 0.00 | 0.00 | 83 | 1024.7 |
| 20260510102023 | 48 | 49 | 4.0 | 8.0 | 0.00 | 0.00 | 0.00 | 82 | 1024.6 |
| 20260510101519 | 48 | 48 | 2.0 | 5.0 | 0.00 | 0.00 | 0.00 | 81 | 1024.5 |
| 20260510101018 | 48 | 27 | 1.0 | 5.0 | 0.00 | 0.00 | 0.00 | 82 | 1024.5 |
| 20260510100517 | 48 | 17 | 2.0 | 5.0 | 0.00 | 0.00 | 0.00 | 82 | 1024.5 |
| 20260510100022 | 48 | 360 | 2.0 | 4.0 | 0.00 | 0.00 | 0.00 | 82 | 1024.6 |
| 20260510095522 | 48 | 360 | 1.0 | 3.0 | 0.00 | 0.00 | 0.00 | 82 | 1024.5 |
| 20260510095020 | 48 | 360 | 0.0 | 1.0 | 0.00 | 0.00 | 0.00 | 82 | 1024.4 |
| 20260510094519 | 48 | 360 | 0.0 | 1.0 | 0.00 | 0.00 | 0.00 | 82 | 1024.3 |
| 20260510094019 | 48 | 360 | 0.0 | 1.0 | 0.00 | 0.00 | 0.00 | 82 | 1024.3 |
| 20260510093519 | 48 | 360 | 0.0 | 2.0 | 0.00 | 0.00 | 0.00 | 81 | 1024.3 |
| 20260510093020 | 48 | 360 | 0.0 | 2.0 | 0.00 | 0.00 | 0.00 | 81 | 1024.3 |
| 20260510092520 | 48 | 360 | 0.0 | 0.0 | 0.00 | 0.00 | 0.00 | 81 | 1024.2 |
| 20260510092019 | 48 | 360 | 0.0 | 0.0 | 0.00 | 0.00 | 0.00 | 81 | 1024.2 |
| 20260510091524 | 48 | 360 | 0.0 | 0.0 | 0.00 | 0.00 | 0.00 | 81 | 1024.1 |
| 20260510091023 | 48 | 360 | 0.0 | 0.0 | 0.00 | 0.00 | 0.00 | 80 | 1024.0 |
| 20260510090523 | 48 | 360 | 0.0 | 1.0 | 0.00 | 0.00 | 0.00 | 80 | 1024.0 |
| 20260510090023 | 48 | 360 | 0.0 | 2.0 | 0.00 | 0.00 | 0.00 | 80 | 1024.1 |
| 20260510085523 | 48 | 360 | 0.0 | 2.0 | 0.00 | 0.00 | 0.00 | 79 | 1023.9 |
| 20260510085025 | 48 | 360 | 0.0 | 3.0 | 0.00 | 0.00 | 0.00 | 79 | 1023.8 |
| 20260510084506 | 48 | 360 | 1.0 | 3.0 | 0.00 | 0.00 | 0.00 | 79 | 1023.7 |
| 20260510084007 | 49 | 360 | 0.0 | 2.0 | 0.00 | 0.00 | 0.00 | 79 | 1023.7 |
| 20260510083510 | 49 | 359 | 0.0 | 2.0 | 0.00 | 0.00 | 0.00 | 79 | 1023.7 |
| 20260510083005 | 49 | 359 | 0.0 | 2.0 | 0.00 | 0.00 | 0.00 | 79 | 1023.7 |
| 20260510082506 | 49 | 359 | 0.0 | 0.0 | 0.00 | 0.00 | 0.00 | 79 | 1023.7 |
| 20260510082006 | 49 | 359 | 0.0 | 0.0 | 0.00 | 0.00 | 0.00 | 79 | 1023.5 |
| 20260510081520 | 48 | 359 | 0.0 | 0.0 | 0.00 | 0.00 | 0.00 | 78 | 1023.5 |
| 20260510081005 | 48 | 359 | 0.0 | 0.0 | 0.00 | 0.00 | 0.00 | 78 | 1023.5 |
| 20260510080504 | 48 | 359 | 0.0 | 0.0 | 0.00 | 0.00 | 0.00 | 78 | 1023.5 |
| 20260510080011 | 48 | 359 | 0.0 | 0.0 | 0.00 | 0.00 | 0.00 | 78 | 1023.5 |
| 20260510075511 | 48 | 359 | 0.0 | 0.0 | 0.00 | 0.00 | 0.00 | 78 | 1023.4 |
| 20260510075009 | 48 | 359 | 0.0 | 0.0 | 0.00 | 0.00 | 0.00 | 78 | 1023.5 |
| 20260510074510 | 48 | 359 | 0.0 | 0.0 | 0.00 | 0.00 | 0.00 | 78 | 1023.7 |
| 20260510074012 | 48 | 359 | 0.0 | 0.0 | 0.00 | 0.00 | 0.00 | 78 | 1023.7 |
| 20260510073511 | 48 | 359 | 0.0 | 0.0 | 0.00 | 0.00 | 0.00 | 78 | 1023.9 |
| 20260510073008 | 48 | 359 | 0.0 | 0.0 | 0.00 | 0.00 | 0.00 | 78 | 1024.0 |
| 20260510072512 | 48 | 359 | 0.0 | 0.0 | 0.00 | 0.00 | 0.00 | 79 | 1024.0 |
| 20260510072008 | 48 | 359 | 0.0 | 0.0 | 0.00 | 0.00 | 0.00 | 79 | 1024.1 |
| 20260510071515 | 48 | 359 | 0.0 | 0.0 | 0.00 | 0.00 | 0.00 | 79 | 1024.0 |
| 20260510071011 | 48 | 359 | 0.0 | 1.0 | 0.00 | 0.00 | 0.00 | 80 | 1024.1 |
| 20260510070511 | 48 | 359 | 0.0 | 2.0 | 0.00 | 0.00 | 0.00 | 80 | 1024.1 |
| 20260510070110 | 48 | 359 | 0.0 | 3.0 | 0.00 | 0.00 | 0.00 | 80 | 1024.0 |
| 20260510065510 | 48 | 359 | 0.0 | 3.0 | 0.00 | 0.00 | 0.00 | 81 | 1024.0 |
| 20260510065010 | 48 | 359 | 0.0 | 2.0 | 0.00 | 0.00 | 0.00 | 81 | 1023.9 |
| 20260510064511 | 48 | 359 | 0.0 | 2.0 | 0.00 | 0.00 | 0.00 | 81 | 1023.9 |
| 20260510064011 | 48 | 359 | 0.0 | 1.0 | 0.00 | 0.00 | 0.00 | 81 | 1024.0 |
| 20260510063511 | 48 | 359 | 0.0 | 2.0 | 0.00 | 0.00 | 0.00 | 81 | 1023.9 |
| 20260510063011 | 48 | 359 | 0.0 | 2.0 | 0.00 | 0.00 | 0.00 | 81 | 1024.0 |
| 20260510062512 | 48 | 359 | 0.0 | 3.0 | 0.00 | 0.00 | 0.00 | 81 | 1024.1 |
| 20260510062015 | 48 | 359 | 1.0 | 3.0 | 0.00 | 0.00 | 0.00 | 81 | 1024.2 |
| 20260510061513 | 48 | 359 | 0.0 | 2.0 | 0.00 | 0.00 | 0.00 | 81 | 1024.1 |
| 20260510061010 | 48 | 359 | 0.0 | 3.0 | 0.00 | 0.00 | 0.00 | 81 | 1023.9 |
| 20260510060509 | 48 | 359 | 0.0 | 5.0 | 0.00 | 0.00 | 0.00 | 81 | 1023.9 |
| 20260510060023 | 48 | 359 | 1.0 | 5.0 | 0.00 | 0.00 | 0.00 | 81 | 1024.0 |
| 20260510055512 | 48 | 359 | 1.0 | 5.0 | 0.00 | 0.00 | 0.00 | 81 | 1024.0 |
| 20260510055015 | 48 | 360 | 0.0 | 1.0 | 0.00 | 0.00 | 0.00 | 80 | 1024.0 |
| 20260510054516 | 48 | 360 | 0.0 | 1.0 | 0.00 | 0.00 | 0.00 | 79 | 1023.9 |
| 20260510054014 | 48 | 360 | 0.0 | 1.0 | 0.00 | 0.00 | 0.00 | 79 | 1023.9 |
| 20260510053511 | 48 | 360 | 0.0 | 2.0 | 0.00 | 0.00 | 0.00 | 78 | 1023.7 |
| 20260510053022 | 48 | 360 | 0.0 | 2.0 | 0.00 | 0.00 | 0.00 | 78 | 1023.6 |
| 20260510052514 | 49 | 360 | 0.0 | 4.0 | 0.00 | 0.00 | 0.00 | 77 | 1023.7 |
| 20260510052015 | 49 | 360 | 1.0 | 4.0 | 0.00 | 0.00 | 0.00 | 78 | 1023.7 |
| 20260510051520 | 49 | 356 | 1.0 | 5.0 | 0.00 | 0.00 | 0.00 | 78 | 1023.9 |
| 20260510051012 | 49 | 360 | 1.0 | 5.0 | 0.00 | 0.00 | 0.00 | 78 | 1024.2 |
| 20260510050513 | 49 | 360 | 2.0 | 5.0 | 0.00 | 0.00 | 0.00 | 77 | 1024.3 |
| 20260510050013 | 49 | 360 | 2.0 | 5.0 | 0.00 | 0.00 | 0.00 | 77 | 1024.2 |
| 20260510045513 | 50 | 18 | 1.0 | 5.0 | 0.00 | 0.00 | 0.00 | 76 | 1024.2 |
| 20260510045012 | 50 | 16 | 2.0 | 5.0 | 0.00 | 0.00 | 0.00 | 76 | 1024.1 |
| 20260510044533 | 50 | 18 | 1.0 | 5.0 | 0.00 | 0.00 | 0.00 | 76 | 1024.0 |
| 20260510044016 | 50 | 15 | 1.0 | 4.0 | 0.00 | 0.00 | 0.00 | 76 | 1023.9 |
| 20260510043515 | 50 | 13 | 1.0 | 4.0 | 0.00 | 0.00 | 0.00 | 76 | 1024.0 |
| 20260510043014 | 50 | 13 | 0.0 | 4.0 | 0.00 | 0.00 | 0.00 | 76 | 1024.0 |
| 20260510042513 | 50 | 12 | 0.0 | 4.0 | 0.00 | 0.00 | 0.00 | 76 | 1023.9 |
| 20260510042013 | 50 | 12 | 0.0 | 4.0 | 0.00 | 0.00 | 0.00 | 76 | 1024.0 |
| 20260510041514 | 50 | 12 | 0.0 | 4.0 | 0.00 | 0.00 | 0.00 | 76 | 1024.0 |
| 20260510041014 | 50 | 12 | 1.0 | 4.0 | 0.00 | 0.00 | 0.00 | 76 | 1024.0 |
| 20260510040516 | 50 | 11 | 0.0 | 7.0 | 0.00 | 0.00 | 0.00 | 76 | 1023.9 |
| 20260510040030 | 50 | 11 | 3.0 | 7.0 | 0.00 | 0.00 | 0.00 | 75 | 1023.8 |
| 20260510035516 | 50 | 43 | 2.0 | 6.0 | 0.00 | 0.00 | 0.00 | 75 | 1023.9 |
| 20260510035018 | 50 | 41 | 1.0 | 11.0 | 0.00 | 0.00 | 0.00 | 73 | 1023.9 |
| 20260510034516 | 51 | 43 | 4.0 | 11.0 | 0.00 | 0.00 | 0.00 | 71 | 1023.8 |
| 20260510034015 | 51 | 4 | 4.0 | 9.0 | 0.00 | 0.00 | 0.00 | 69 | 1023.7 |
| 20260510033513 | 51 | 27 | 2.0 | 10.0 | 0.00 | 0.00 | 0.00 | 69 | 1023.5 |
| 20260510033022 | 51 | 360 | 5.0 | 10.0 | 0.00 | 0.00 | 0.00 | 69 | 1023.5 |
| 20260510032518 | 51 | 1 | 5.0 | 10.0 | 0.00 | 0.00 | 0.00 | 69 | 1023.5 |
| 20260510032023 | 51 | 360 | 4.0 | 10.0 | 0.00 | 0.00 | 0.00 | 69 | 1023.3 |
| 20260510031520 | 51 | 359 | 4.0 | 10.0 | 0.00 | 0.00 | 0.00 | 70 | 1023.2 |
| 20260510031018 | 51 | 5 | 5.0 | 13.0 | 0.00 | 0.00 | 0.00 | 69 | 1023.0 |
| 20260510030528 | 51 | 360 | 6.0 | 12.0 | 0.00 | 0.00 | 0.00 | 69 | 1022.7 |
| 20260510030018 | 51 | 1 | 5.0 | 11.0 | 0.00 | 0.00 | 0.00 | 69 | 1022.4 |
| 20260510025517 | 51 | 1 | 5.0 | 12.0 | 0.00 | 0.00 | 0.00 | 69 | 1022.2 |
| 20260510025018 | 51 | 1 | 6.0 | 12.0 | 0.00 | 0.00 | 0.00 | 69 | 1022.0 |
| 20260510024520 | 52 | 1 | 5.0 | 12.0 | 0.00 | 0.00 | 0.00 | 69 | 1021.6 |
| 20260510024018 | 52 | 359 | 5.0 | 12.0 | 0.00 | 0.00 | 0.00 | 70 | 1021.3 |
| 20260510023519 | 52 | 309 | 5.0 | 12.0 | 0.00 | 0.00 | 0.00 | 71 | 1021.0 |
| 20260510023019 | 51 | 76 | 5.0 | 13.0 | 0.00 | 0.00 | 0.00 | 71 | 1020.5 |
| 20260510022518 | 52 | 1 | 6.0 | 16.0 | 0.00 | 0.00 | 0.00 | 71 | 1020.2 |
| 20260510022018 | 52 | 358 | 7.0 | 16.0 | 0.00 | 0.00 | 0.00 | 70 | 1020.1 |
| 20260510021520 | 52 | 360 | 6.0 | 15.0 | 0.00 | 0.00 | 0.00 | 70 | 1019.9 |
| 20260510021119 | 52 | 359 | 6.0 | 17.0 | 0.00 | 0.00 | 0.00 | 70 | 1019.8 |
| 20260510020519 | 53 | 13 | 7.0 | 17.0 | 0.00 | 0.00 | 0.00 | 69 | 1019.6 |
| 20260510020021 | 53 | 360 | 8.0 | 18.0 | 0.00 | 0.00 | 0.00 | 69 | 1019.2 |
| 20260510015516 | 53 | 34 | 8.0 | 18.0 | 0.00 | 0.00 | 0.00 | 69 | 1019.0 |
| 20260510015021 | 53 | 360 | 8.0 | 21.0 | 0.00 | 0.00 | 0.00 | 68 | 1018.9 |
| 20260510014514 | 54 | 6 | 11.0 | 23.0 | 0.00 | 0.00 | 0.00 | 68 | 1018.9 |
| 20260510014013 | 54 | 360 | 10.0 | 23.0 | 0.00 | 0.00 | 0.00 | 67 | 1018.7 |
| 20260510013513 | 54 | 360 | 8.0 | 22.0 | 0.00 | 0.00 | 0.00 | 66 | 1018.5 |
| 20260510013016 | 55 | 33 | 10.0 | 22.0 | 0.00 | 0.00 | 0.00 | 65 | 1018.2 |
| 20260510012519 | 55 | 47 | 9.0 | 22.0 | 0.00 | 0.00 | 0.00 | 63 | 1017.9 |
| 20260510012015 | 56 | 13 | 9.0 | 24.0 | 0.00 | 0.00 | 0.00 | 62 | 1017.7 |
| 20260510011519 | 56 | 130 | 11.0 | 24.0 | 0.00 | 0.00 | 0.00 | 60 | 1017.6 |
| 20260510011015 | 57 | 2 | 9.0 | 23.0 | 0.00 | 0.00 | 0.00 | 58 | 1017.4 |
| 20260510010515 | 58 | 360 | 9.0 | 19.0 | 0.00 | 0.00 | 0.00 | 56 | 1017.2 |
| 20260510010022 | 59 | 1 | 9.0 | 21.0 | 0.00 | 0.00 | 0.00 | 54 | 1017.0 |
| 20260510005516 | 59 | 354 | 8.0 | 21.0 | 0.00 | 0.00 | 0.00 | 54 | 1016.7 |
| 20260510005015 | 60 | 4 | 9.0 | 19.0 | 0.00 | 0.00 | 0.00 | 53 | 1016.4 |
| 20260510004520 | 60 | 347 | 10.0 | 23.0 | 0.00 | 0.00 | 0.00 | 51 | 1015.9 |
| 20260510004019 | 62 | 359 | 11.0 | 23.0 | 0.00 | 0.00 | 0.00 | 47 | 1015.6 |
| 20260510003518 | 66 | 359 | 10.0 | 21.0 | 0.00 | 0.00 | 0.00 | 41 | 1015.1 |
| 20260510003018 | 72 | 360 | 10.0 | 21.0 | 0.00 | 0.00 | 0.00 | 30 | 1015.1 |
| 20260510002516 | 73 | 56 | 3.0 | 7.0 | 0.00 | 0.00 | 0.00 | 23 | 1014.0 |
| 20260510002020 | 73 | 50 | 2.0 | 7.0 | 0.00 | 0.00 | 0.00 | 23 | 1013.6 |
| 20260510001521 | 73 | 47 | 4.0 | 7.0 | 0.00 | 0.00 | 0.00 | 23 | 1013.5 |
| 20260510001020 | 73 | 59 | 3.0 | 9.0 | 0.00 | 0.00 | 0.00 | 24 | 1013.4 |
| 20260510000520 | 73 | 62 | 2.0 | 9.0 | 0.00 | 0.00 | 0.00 | 24 | 1013.4 |
| 20260510000020 | 73 | 33 | 4.0 | 11.0 | 0.00 | 0.00 | 0.00 | 23 | 1013.3 |
| 20260509235520 | 74 | 63 | 5.0 | 11.0 | 0.00 | 0.00 | 0.00 | 23 | 1013.2 |
| 20260509235024 | 74 | 15 | 3.0 | 10.0 | 0.00 | 0.00 | 0.00 | 24 | 1013.2 |
| 20260509234530 | 75 | 36 | 4.0 | 10.0 | 0.00 | 0.00 | 0.00 | 23 | 1013.0 |
| 20260509234019 | 75 | 65 | 3.0 | 9.0 | 0.00 | 0.00 | 0.00 | 24 | 1013.0 |
| 20260509233520 | 74 | 54 | 5.0 | 9.0 | 0.00 | 0.00 | 0.00 | 21 | 1012.9 |
| 20260509233023 | 75 | 21 | 4.0 | 9.0 | 0.00 | 0.00 | 0.00 | 22 | 1012.8 |
| 20260509232525 | 74 | 15 | 3.0 | 9.0 | 0.00 | 0.00 | 0.00 | 22 | 1012.7 |
| 20260509232022 | 75 | 37 | 5.0 | 9.0 | 0.00 | 0.00 | 0.00 | 22 | 1012.7 |
| 20260509231521 | 74 | 65 | 3.0 | 10.0 | 0.00 | 0.00 | 0.00 | 22 | 1012.7 |
| 20260509231025 | 74 | 75 | 2.0 | 10.0 | 0.00 | 0.00 | 0.00 | 23 | 1012.7 |
| 20260509230520 | 74 | 25 | 5.0 | 9.0 | 0.00 | 0.00 | 0.00 | 22 | 1012.7 |
| 20260509230026 | 74 | 48 | 4.0 | 9.0 | 0.00 | 0.00 | 0.00 | 22 | 1012.6 |
| 20260509225528 | 75 | 63 | 3.0 | 9.0 | 0.00 | 0.00 | 0.00 | 21 | 1012.7 |
| 20260509225024 | 74 | 53 | 2.0 | 11.0 | 0.00 | 0.00 | 0.00 | 22 | 1012.8 |
| 20260509224524 | 74 | 54 | 4.0 | 11.0 | 0.00 | 0.00 | 0.00 | 21 | 1012.6 |
| 20260509224024 | 75 | 44 | 3.0 | 10.0 | 0.00 | 0.00 | 0.00 | 20 | 1012.5 |
| 20260509223524 | 75 | 98 | 4.0 | 13.0 | 0.00 | 0.00 | 0.00 | 21 | 1012.4 |
| 20260509223025 | 75 | 56 | 5.0 | 13.0 | 0.00 | 0.00 | 0.00 | 22 | 1012.5 |
| 20260509222524 | 75 | 32 | 3.0 | 10.0 | 0.00 | 0.00 | 0.00 | 21 | 1012.4 |
| 20260509222024 | 76 | 110 | 4.0 | 11.0 | 0.00 | 0.00 | 0.00 | 22 | 1012.4 |
| 20260509221508 | 75 | 28 | 4.0 | 13.0 | 0.00 | 0.00 | 0.00 | 23 | 1012.5 |
| 20260509221008 | 75 | 41 | 4.0 | 13.0 | 0.00 | 0.00 | 0.00 | 23 | 1012.4 |
| 20260509220508 | 74 | 70 | 4.0 | 12.0 | 0.00 | 0.00 | 0.00 | 21 | 1012.5 |
| 20260509220009 | 75 | 359 | 6.0 | 14.0 | 0.00 | 0.00 | 0.00 | 22 | 1012.5 |
| 20260509215507 | 75 | 40 | 5.0 | 14.0 | 0.00 | 0.00 | 0.00 | 21 | 1012.5 |
| 20260509215007 | 76 | 29 | 5.0 | 16.0 | 0.00 | 0.00 | 0.00 | 21 | 1012.6 |
| 20260509214509 | 76 | 50 | 7.0 | 16.0 | 0.00 | 0.00 | 0.00 | 19 | 1012.5 |
| 20260509214009 | 77 | 6 | 4.0 | 11.0 | 0.00 | 0.00 | 0.00 | 20 | 1012.7 |
| 20260509213509 | 75 | 63 | 5.0 | 11.0 | 0.00 | 0.00 | 0.00 | 20 | 1012.6 |
| 20260509213033 | 76 | 51 | 5.0 | 12.0 | 0.00 | 0.00 | 0.00 | 19 | 1012.7 |
| 20260509212536 | 75 | 59 | 6.0 | 14.0 | 0.00 | 0.00 | 0.00 | 19 | 1012.7 |
| 20260509212034 | 76 | 49 | 7.0 | 13.0 | 0.00 | 0.00 | 0.00 | 19 | 1012.8 |
| 20260509211517 | 76 | 68 | 6.0 | 11.0 | 0.00 | 0.00 | 0.00 | 20 | 1012.8 |
| 20260509211018 | 76 | 24 | 4.0 | 9.0 | 0.00 | 0.00 | 0.00 | 21 | 1012.9 |
| 20260509210517 | 76 | 107 | 4.0 | 9.0 | 0.00 | 0.00 | 0.00 | 22 | 1013.0 |
| 20260509210023 | 77 | 47 | 6.0 | 9.0 | 0.00 | 0.00 | 0.00 | 19 | 1012.9 |
| 20260509205520 | 77 | 18 | 4.0 | 11.0 | 0.00 | 0.00 | 0.00 | 20 | 1013.0 |
| 20260509205023 | 76 | 46 | 3.0 | 14.0 | 0.00 | 0.00 | 0.00 | 20 | 1013.0 |
| 20260509204518 | 76 | 46 | 5.0 | 14.0 | 0.00 | 0.00 | 0.00 | 19 | 1013.1 |
| 20260509204018 | 76 | 8 | 1.0 | 10.0 | 0.00 | 0.00 | 0.00 | 21 | 1013.3 |
| 20260509203518 | 75 | 359 | 3.0 | 10.0 | 0.00 | 0.00 | 0.00 | 22 | 1013.3 |
| 20260509203019 | 74 | 72 | 3.0 | 9.0 | 0.00 | 0.00 | 0.00 | 20 | 1013.4 |
| 20260509202517 | 75 | 53 | 4.0 | 9.0 | 0.00 | 0.00 | 0.00 | 20 | 1013.5 |
| 20260509202017 | 74 | 40 | 3.0 | 8.0 | 0.00 | 0.00 | 0.00 | 21 | 1013.5 |
| 20260509201519 | 74 | 53 | 5.0 | 9.0 | 0.00 | 0.00 | 0.00 | 20 | 1013.6 |
| 20260509201019 | 75 | 31 | 5.0 | 9.0 | 0.00 | 0.00 | 0.00 | 20 | 1013.7 |
| 20260509200519 | 75 | 28 | 3.0 | 13.0 | 0.00 | 0.00 | 0.00 | 20 | 1013.7 |
| 20260509200022 | 76 | 360 | 4.0 | 13.0 | 0.00 | 0.00 | 0.00 | 20 | 1013.9 |
| 20260509195525 | 76 | 14 | 2.0 | 7.0 | 0.00 | 0.00 | 0.00 | 20 | 1013.8 |
| 20260509195020 | 75 | 354 | 4.0 | 7.0 | 0.00 | 0.00 | 0.00 | 23 | 1013.9 |
| 20260509194523 | 75 | 86 | 3.0 | 9.0 | 0.00 | 0.00 | 0.00 | 22 | 1013.9 |
| 20260509194024 | 74 | 16 | 3.0 | 11.0 | 0.00 | 0.00 | 0.00 | 22 | 1013.8 |
| 20260509193525 | 74 | 40 | 4.0 | 11.0 | 0.00 | 0.00 | 0.00 | 24 | 1013.8 |
| 20260509193033 | 73 | 103 | 3.0 | 11.0 | 0.00 | 0.00 | 0.00 | 23 | 1013.8 |
| 20260509192524 | 75 | 78 | 3.0 | 13.0 | 0.00 | 0.00 | 0.00 | 24 | 1013.9 |
| 20260509192027 | 75 | 56 | 5.0 | 13.0 | 0.00 | 0.00 | 0.00 | 20 | 1013.9 |
| 20260509191524 | 75 | 360 | 2.0 | 7.0 | 0.00 | 0.00 | 0.00 | 22 | 1014.0 |
| 20260509191022 | 75 | 360 | 3.0 | 10.0 | 0.00 | 0.00 | 0.00 | 22 | 1014.0 |
| 20260509190523 | 74 | 36 | 4.0 | 10.0 | 0.00 | 0.00 | 0.00 | 25 | 1014.0 |
| 20260509190029 | 74 | 52 | 5.0 | 10.0 | 0.00 | 0.00 | 0.00 | 22 | 1014.1 |
| 20260509185525 | 75 | 4 | 4.0 | 10.0 | 0.00 | 0.00 | 0.00 | 22 | 1014.0 |
| 20260509185025 | 75 | 1 | 1.0 | 7.0 | 0.00 | 0.00 | 0.00 | 22 | 1014.0 |
| 20260509184533 | 74 | 359 | 1.0 | 9.0 | 0.00 | 0.00 | 0.00 | 23 | 1014.1 |
| 20260509184022 | 74 | 359 | 4.0 | 9.0 | 0.00 | 0.00 | 0.00 | 23 | 1014.2 |
| 20260509183521 | 74 | 1 | 5.0 | 9.0 | 0.00 | 0.00 | 0.00 | 24 | 1014.1 |
| 20260509183006 | 73 | 26 | 3.0 | 8.0 | 0.00 | 0.00 | 0.00 | 22 | 1014.1 |
| 20260509182505 | 73 | 6 | 3.0 | 11.0 | 0.00 | 0.00 | 0.00 | 23 | 1014.1 |
| 20260509182005 | 73 | 40 | 3.0 | 11.0 | 0.00 | 0.00 | 0.00 | 25 | 1014.2 |
| 20260509181505 | 73 | 359 | 4.0 | 10.0 | 0.00 | 0.00 | 0.00 | 24 | 1014.2 |
| 20260509181005 | 73 | 18 | 4.0 | 11.0 | 0.00 | 0.00 | 0.00 | 26 | 1014.2 |
| 20260509180505 | 73 | 76 | 3.0 | 11.0 | 0.00 | 0.00 | 0.00 | 25 | 1014.2 |
| 20260509180029 | 74 | 39 | 3.0 | 8.0 | 0.00 | 0.00 | 0.00 | 24 | 1014.3 |
| 20260509175526 | 73 | 26 | 3.0 | 11.0 | 0.00 | 0.00 | 0.00 | 24 | 1014.2 |
| 20260509175029 | 73 | 89 | 4.0 | 10.0 | 0.00 | 0.00 | 0.00 | 26 | 1014.2 |
| 20260509174512 | 72 | 97 | 3.0 | 9.0 | 0.00 | 0.00 | 0.00 | 28 | 1014.2 |
| 20260509174009 | 72 | 37 | 5.0 | 11.0 | 0.00 | 0.00 | 0.00 | 26 | 1014.3 |
| 20260509173506 | 71 | 1 | 3.0 | 11.0 | 0.00 | 0.00 | 0.00 | 26 | 1014.3 |
| 20260509173005 | 72 | 8 | 4.0 | 11.0 | 0.00 | 0.00 | 0.00 | 26 | 1014.4 |
| 20260509172505 | 72 | 8 | 5.0 | 11.0 | 0.00 | 0.00 | 0.00 | 27 | 1014.4 |
| 20260509172005 | 72 | 7 | 4.0 | 11.0 | 0.00 | 0.00 | 0.00 | 28 | 1014.3 |
| 20260509171517 | 71 | 58 | 5.0 | 12.0 | 0.00 | 0.00 | 0.00 | 28 | 1014.2 |
| 20260509171009 | 71 | 46 | 6.0 | 12.0 | 0.00 | 0.00 | 0.00 | 28 | 1014.2 |
| 20260509170509 | 71 | 38 | 7.0 | 12.0 | 0.00 | 0.00 | 0.00 | 29 | 1014.2 |
| 20260509170010 | 71 | 33 | 5.0 | 10.0 | 0.00 | 0.00 | 0.00 | 30 | 1014.2 |
| 20260509165506 | 71 | 28 | 5.0 | 10.0 | 0.00 | 0.00 | 0.00 | 28 | 1014.3 |
| 20260509165006 | 72 | 30 | 5.0 | 8.0 | 0.00 | 0.00 | 0.00 | 28 | 1014.3 |
| 20260509164506 | 73 | 55 | 4.0 | 7.0 | 0.00 | 0.00 | 0.00 | 20 | 1014.2 |
| 20260509164007 | 73 | 22 | 3.0 | 8.0 | 0.00 | 0.00 | 0.00 | 20 | 1014.2 |
| 20260509163506 | 72 | 60 | 3.0 | 8.0 | 0.00 | 0.00 | 0.00 | 21 | 1014.2 |
| 20260509163009 | 73 | 47 | 3.0 | 8.0 | 0.00 | 0.00 | 0.00 | 21 | 1014.2 |
| 20260509162509 | 73 | 1 | 2.0 | 8.0 | 0.00 | 0.00 | 0.00 | 22 | 1014.2 |
| 20260509162007 | 72 | 268 | 1.0 | 5.0 | 0.00 | 0.00 | 0.00 | 22 | 1014.2 |
| 20260509161509 | 72 | 268 | 0.0 | 5.0 | 0.00 | 0.00 | 0.00 | 23 | 1014.1 |
| 20260509161008 | 72 | 308 | 1.0 | 4.0 | 0.00 | 0.00 | 0.00 | 22 | 1014.2 |
| 20260509160508 | 72 | 345 | 2.0 | 4.0 | 0.00 | 0.00 | 0.00 | 23 | 1014.1 |
| 20260509160016 | 72 | 300 | 1.0 | 5.0 | 0.00 | 0.00 | 0.00 | 24 | 1014.2 |
| 20260509155508 | 71 | 297 | 0.0 | 5.0 | 0.00 | 0.00 | 0.00 | 23 | 1014.1 |
| 20260509155010 | 71 | 283 | 2.0 | 4.0 | 0.00 | 0.00 | 0.00 | 24 | 1014.0 |
| 20260509154511 | 70 | 280 | 0.0 | 6.0 | 0.00 | 0.00 | 0.00 | 24 | 1014.0 |
| 20260509154011 | 70 | 280 | 2.0 | 6.0 | 0.00 | 0.00 | 0.00 | 25 | 1014.1 |
| 20260509153511 | 69 | 271 | 1.0 | 6.0 | 0.00 | 0.00 | 0.00 | 24 | 1014.1 |
| 20260509153010 | 69 | 272 | 0.0 | 7.0 | 0.00 | 0.00 | 0.00 | 26 | 1014.2 |
| 20260509152509 | 69 | 238 | 3.0 | 10.0 | 0.00 | 0.00 | 0.00 | 27 | 1014.2 |
| 20260509152008 | 69 | 264 | 5.0 | 10.0 | 0.00 | 0.00 | 0.00 | 27 | 1014.3 |
| 20260509151512 | 68 | 240 | 2.0 | 6.0 | 0.00 | 0.00 | 0.00 | 30 | 1014.4 |
| 20260509151010 | 68 | 257 | 2.0 | 5.0 | 0.00 | 0.00 | 0.00 | 29 | 1014.3 |
| 20260509150509 | 67 | 293 | 2.0 | 5.0 | 0.00 | 0.00 | 0.00 | 31 | 1014.3 |
| 20260509150012 | 66 | 240 | 0.0 | 6.0 | 0.00 | 0.00 | 0.00 | 38 | 1014.2 |
| 20260509145510 | 65 | 239 | 3.0 | 6.0 | 0.00 | 0.00 | 0.00 | 38 | 1014.3 |
| 20260509145008 | 64 | 238 | 2.0 | 6.0 | 0.00 | 0.00 | 0.00 | 41 | 1014.4 |
| 20260509144517 | 63 | 360 | 2.0 | 4.0 | 0.00 | 0.00 | 0.00 | 47 | 1014.4 |
| 20260509144011 | 62 | 1 | 0.0 | 3.0 | 0.00 | 0.00 | 0.00 | 47 | 1014.4 |
| 20260509143512 | 62 | 3 | 0.0 | 0.0 | 0.00 | 0.00 | 0.00 | 48 | 1014.4 |
| 20260509143014 | 61 | 4 | 0.0 | 0.0 | 0.00 | 0.00 | 0.00 | 49 | 1014.4 |
| 20260509142511 | 60 | 4 | 0.0 | 0.0 | 0.00 | 0.00 | 0.00 | 52 | 1014.4 |
| 20260509142011 | 58 | 4 | 0.0 | 0.0 | 0.00 | 0.00 | 0.00 | 56 | 1014.2 |
| 20260509141519 | 57 | 4 | 0.0 | 2.0 | 0.00 | 0.00 | 0.00 | 57 | 1014.1 |
| 20260509141010 | 56 | 4 | 0.0 | 2.0 | 0.00 | 0.00 | 0.00 | 60 | 1014.1 |